TimeEST,TemperatureF,Dew PointF,Humidity,Sea Level PressureIn,VisibilityMPH,Wind Direction,Wind SpeedMPH,Gust SpeedMPH,PrecipitationIn,Events,Conditions,WindDirDegrees,DateUTC
12:54 AM,30.9,28.0,89,30.14,5.0,West,4.6,-,N/A,,Clear,280,2013-01-26 05:54:00
1:54 AM,30.9,27.0,85,30.14,6.0,West,6.9,-,N/A,,Clear,280,2013-01-26 06:54:00
2:54 AM,30.0,27.0,88,30.14,6.0,West,4.6,-,N/A,,Clear,270,2013-01-26 07:54:00
3:54 AM,30.0,26.1,85,30.14,6.0,NW,4.6,-,N/A,,Clear,310,2013-01-26 08:54:00
4:54 AM,30.0,26.1,85,30.16,6.0,WNW,3.5,-,N/A,,Clear,290,2013-01-26 09:54:00
5:54 AM,28.9,25.0,85,30.17,6.0,Calm,Calm,-,N/A,,Clear,0,2013-01-26 10:54:00
6:54 AM,28.9,25.0,85,30.19,5.0,NW,3.5,-,N/A,,Clear,310,2013-01-26 11:54:00
7:54 AM,28.9,26.1,89,30.19,4.0,NNW,4.6,-,N/A,,Clear,340,2013-01-26 12:54:00
8:54 AM,30.9,28.0,89,30.22,3.0,NNW,3.5,-,N/A,,Clear,340,2013-01-26 13:54:00
9:01 AM,30.2,26.6,86,30.22,3.0,Calm,Calm,-,N/A,,Scattered Clouds,0,2013-01-26 14:01:00
9:19 AM,30.2,28.4,93,30.22,3.0,Calm,Calm,-,N/A,,Mostly Cloudy,0,2013-01-26 14:19:00
9:54 AM,32.0,28.9,88,30.24,2.5,North,4.6,-,N/A,,Overcast,10,2013-01-26 14:54:00
10:54 AM,32.0,28.9,88,30.26,2.5,North,6.9,-,N/A,,Overcast,360,2013-01-26 15:54:00
11:22 AM,30.2,28.4,93,30.26,3.0,North,4.6,-,N/A,,Overcast,360,2013-01-26 16:22:00
11:49 AM,32.0,28.4,87,30.27,2.5,North,5.8,-,N/A,,Overcast,360,2013-01-26 16:49:00
11:54 AM,32.0,28.9,88,30.26,2.5,Variable,4.6,-,N/A,,Overcast,0,2013-01-26 16:54:00
12:05 PM,32.0,30.2,93,30.26,3.0,NNE,4.6,-,N/A,,Overcast,30,2013-01-26 17:05:00
12:16 PM,32.0,30.2,93,30.25,2.5,North,5.8,-,N/A,,Overcast,360,2013-01-26 17:16:00
12:37 PM,33.8,30.2,87,30.25,3.0,NE,5.8,-,N/A,,Overcast,40,2013-01-26 17:37:00
12:54 PM,33.1,30.0,89,30.25,3.0,NE,4.6,-,N/A,,Overcast,40,2013-01-26 17:54:00
1:54 PM,34.0,30.9,89,30.25,5.0,Calm,Calm,-,N/A,,Overcast,0,2013-01-26 18:54:00
2:13 PM,33.8,30.2,87,30.24,5.0,NE,4.6,-,N/A,,Overcast,50,2013-01-26 19:13:00
2:54 PM,33.1,30.9,92,30.25,5.0,Calm,Calm,-,N/A,,Overcast,0,2013-01-26 19:54:00
3:54 PM,34.0,30.9,89,30.27,6.0,North,3.5,-,N/A,,Overcast,10,2013-01-26 20:54:00
4:54 PM,33.1,30.0,89,30.28,6.0,NW,5.8,-,N/A,,Overcast,320,2013-01-26 21:54:00
5:54 PM,34.0,30.0,85,30.31,5.0,North,4.6,-,N/A,,Overcast,360,2013-01-26 22:54:00
6:54 PM,33.1,28.9,85,30.33,10.0,North,6.9,-,N/A,,Overcast,360,2013-01-26 23:54:00
7:01 PM,33.8,28.4,81,30.33,10.0,NNE,4.6,-,N/A,,Overcast,20,2013-01-27 00:01:00
7:20 PM,33.8,30.2,87,30.34,9.0,North,3.5,-,N/A,,Overcast,10,2013-01-27 00:20:00
7:54 PM,33.1,28.9,85,30.35,9.0,NNE,6.9,-,N/A,,Overcast,30,2013-01-27 00:54:00
8:54 PM,33.1,28.9,85,30.36,9.0,NNE,5.8,-,N/A,,Overcast,20,2013-01-27 01:54:00
9:54 PM,32.0,28.9,88,30.38,9.0,ENE,6.9,-,N/A,,Overcast,60,2013-01-27 02:54:00
10:54 PM,30.9,28.9,92,30.41,6.0,North,4.6,-,N/A,,Overcast,10,2013-01-27 03:54:00
11:54 PM,30.9,28.9,92,30.42,5.0,North,4.6,-,N/A,,Overcast,10,2013-01-27 04:54:00